#timestamp,LO_Frequency,Hit,StdDev 
1587718815.2,286046990.1,P
1587718835.1,286046988.4,Y
1587718836.0,286046988.4,P
1587718855.8,286046991.9,P
1587718875.6,286046988.7,P
1587718895.5,286046988.6,Y
1587718915.3,286046995.7,P
1587718935.2,286046994.0,N
1587718955.9,286046990.6,P
1587718975.7,286046991.1,Y
1587718995.6,286046997.9,P
1587719015.4,286046996.1,N
1587719035.2,286046997.8,N
1587719055.1,286047000.1,N
1587719056.0,286047000.1,N
1587719075.8,286046998.7,N
1587719095.7,286046996.7,N
1587719115.5,286046996.4,N
1587719135.3,286046994.4,N
1587719155.2,286046990.8,Y
1587719175.0,286046994.1,P
1587719175.9,286046994.1,P
1587719195.8,286046990.4,P
1587719215.6,286046989.0,Y
1587719235.4,286046990.1,P
1587719255.3,286046989.1,P
1587719275.1,286046991.2,P
1587719295.8,286046992.7,Y
1587719315.7,286047002.5,P
1587719335.5,286047000.3,N
1587719355.4,286047007.5,N
1587719375.2,286047008.9,N
1587719395.0,286047009.5,N
1587719395.9,286047009.5,N
1587719415.8,286047014.0,N
1587719435.6,286047011.5,N
1587719455.5,286047016.9,N
1587719475.3,286047018.5,N
1587719495.1,286047015.9,N
1587719515.9,286047015.0,N
1587719535.7,286047013.1,N
1587719555.5,286047012.3,N
1587719575.4,286047008.2,N
1587719595.2,286047007.4,N
1587719615.1,286047000.7,N
1587719616.0,286047000.7,N
1587719635.8,286047001.0,N
1587719655.6,286047001.1,N
1587719675.5,286046998.9,N
1587719695.3,286046993.9,N
1587719715.1,286046993.0,N
1587719735.9,286046987.8,N
1587719755.7,286046987.2,N
1587719775.6,286046990.1,N
1587719795.4,286046991.7,N
1587719815.2,286046989.6,N
1587719835.1,286046988.1,N
1587719836.0,286046988.1,N
1587719855.8,286046987.0,N
1587719875.6,286046991.4,N
1587719895.5,286046986.1,N
1587719915.3,286046988.7,N
1587719935.2,286046993.1,N
1587719955.9,286046992.1,N
1587719975.7,286046995.6,N
1587719995.6,286046992.5,N
1587720015.4,286046993.2,N
1587720035.2,286046992.0,N
1587720055.1,286046991.4,N
1587720056.0,286046991.4,N
1587720075.8,286046984.2,N
1587720095.7,286046983.0,N
1587720115.5,286046983.0,N
1587720135.3,286046983.0,N
1587720155.2,286046982.8,Y
1587720175.0,286046994.8,P
1587720175.9,286046994.8,P
1587720195.8,286046990.3,P
1587720215.6,286046987.1,Y
1587720235.4,286046996.2,P
1587720255.3,286046991.7,P
1587720275.1,286046992.5,P
1587720295.9,286046989.1,Y
1587720315.7,286046995.4,P
1587720335.5,286046997.7,N
1587720355.4,286046999.2,N
1587720375.2,286047001.2,N
1587720395.0,286046995.1,N
1587720395.9,286046995.1,N
1587720415.8,286046992.1,Y
1587720435.6,286046999.0,P
1587720455.5,286047000.3,N
1587720475.3,286046998.2,N
1587720495.1,286046993.3,Y
1587720515.9,286046994.9,P
1587720535.7,286046997.6,N
1587720555.5,286046991.7,P
1587720575.4,286046996.3,N
1587720595.2,286046995.8,N
1587720615.1,286046993.4,Y
1587720616.0,286046993.4,P
1587720635.8,286046996.4,P
1587720655.6,286046992.6,P
1587720675.5,286046992.8,Y
1587720695.3,286046995.5,P
1587720715.2,286046997.9,P
1587720735.9,286046995.2,P
1587720755.7,286046992.4,Y
1587720775.6,286046999.5,P
1587720795.4,286047000.1,N
1587720815.3,286047001.0,N
1587720835.1,286047001.1,N
1587720836.0,286047001.1,N
1587720855.8,286047002.0,N
1587720875.7,286047000.0,N
1587720895.5,286046998.7,N
1587720915.3,286046995.1,N
1587720935.2,286046992.0,Y
1587720955.0,286046994.0,P
1587720955.9,286046994.0,N
1587720975.8,286046994.1,N
1587720995.6,286046990.7,Y
1587721015.4,286046996.0,P
1587721035.3,286046996.2,P
1587721055.1,286046994.8,P
1587721075.8,286046994.2,Y
1587721095.7,286047002.2,P
1587721115.5,286046999.8,N
1587721135.4,286047001.2,N
1587721155.2,286047003.9,N
1587721175.0,286047003.8,N
1587721175.9,286047003.8,N
1587721195.8,286047002.6,N
1587721215.6,286047002.4,N
1587721235.5,286047001.5,N
1587721255.3,286047000.2,N
1587721275.1,286046997.8,N
1587721295.9,286047000.8,N
1587721315.7,286047000.5,N
1587721335.5,286046999.1,N
1587721355.4,286046998.9,N
1587721375.2,286046997.1,N
1587721395.0,286046997.6,N
1587721396.0,286046997.6,N
1587721415.8,286046993.6,N
1587721435.6,286046991.0,Y
1587721455.5,286046994.2,P
1587721475.3,286046991.6,N
1587721495.1,286046989.7,N
1587721515.9,286046991.6,N
1587721535.7,286046993.3,N
1587721555.6,286046993.6,N
1587721575.4,286046992.4,N
1587721595.2,286046992.5,N
1587721615.1,286046992.6,N
1587721616.0,286046992.6,N
1587721635.8,286046993.2,N
1587721655.7,286046992.4,Y
1587721675.5,286047002.7,P
1587721695.3,286047000.1,N
1587721715.2,286046998.7,N
1587721735.0,286046997.3,N
1587721735.9,286046997.3,N
1587721755.7,286046996.9,N
1587721775.6,286046998.8,N
1587721795.4,286046999.1,N
1587721815.3,286046997.8,N
1587721835.1,286046994.0,N
1587721836.0,286046994.0,N
1587721855.8,286046994.8,N
1587721875.7,286046994.4,N
1587721895.5,286046997.5,N
1587721915.3,286046993.9,N
1587721935.2,286046989.0,Y
1587721955.0,286046994.5,P
1587721955.9,286046994.5,P
1587721975.8,286046994.6,P
1587721995.6,286046994.1,Y
1587722015.5,286046998.3,P
1587722035.3,286047000.3,N
1587722055.1,286046996.8,N
1587722075.9,286046995.1,N
1587722095.7,286046995.9,N
1587722115.6,286046993.8,Y
1587722135.4,286046998.3,P
1587722155.2,286047000.5,N
1587722175.1,286047002.6,N
1587722176.0,286047002.6,N
1587722195.8,286047002.0,N
1587722215.6,286047002.7,N
1587722235.5,286047000.9,N
1587722255.3,286046999.1,N
1587722275.2,286046999.6,N
1587722295.9,286046992.8,Y
1587722315.7,286046993.1,P
1587722335.6,286046994.6,N
1587722355.4,286046994.5,N
1587722375.2,286046996.0,N
1587722395.1,286046994.5,N
1587722396.0,286046994.5,N
